Probability
0 0 16 19 23 16 13 19 26 29 29 26 26 26 29 29 26 26 26 23 26 29 29 29 26 26 19 19 19 13 13 13 13 13 10 19 13 13 13 13 6 0 10
0 3 19 23 23 23 19 19 23 26 29 29 23 29 29 29 26 26 26 26 26 26 26 26 26 23 16 16 13 16 13 6 6 6 6 6 13 13 10 13 13 0 10
0 3 16 23 26 26 26 23 26 26 29 32 26 26 29 32 29 29 29 29 29 29 26 26 23 23 16 16 16 13 10 6 6 3 0 0 6 10 10 16 13 13 10
0 3 10 26 26 26 29 23 26 29 26 35 29 29 26 29 32 32 29 26 29 26 23 23 23 19 16 16 13 13 6 6 3 0 0 0 0 10 10 13 10 13 10
0 6 10 26 26 26 26 23 26 26 29 29 29 29 29 29 26 29 29 26 23 19 23 23 16 13 16 16 13 10 6 3 0 0 0 0 0 10 10 10 10 10 10
3 6 10 26 26 23 23 23 23 26 26 26 26 26 29 29 23 26 26 26 19 16 16 16 16 13 13 13 13 10 3 0 0 0 0 0 0 10 6 6 6 3 6
3 6 10 26 26 26 23 23 23 23 26 23 26 23 23 26 23 23 19 19 19 16 19 19 13 10 13 13 10 6 3 0 0 0 0 0 3 6 6 6 6 3 6
3 6 10 26 26 23 23 23 23 23 23 26 26 26 19 19 19 23 19 19 19 19 16 16 10 10 13 13 10 3 0 0 0 0 0 0 3 6 6 6 6 3 3
3 3 6 10 13 16 10 16 16 16 19 19 23 26 19 19 16 16 19 19 19 19 16 16 10 10 10 10 3 0 0 0 0 0 0 0 3 6 6 6 6 3 3
3 3 6 6 13 10 10 10 10 10 13 13 10 10 10 10 16 13 13 16 19 13 13 13 13 13 10 0 0 0 0 0 0 0 0 0 3 6 6 6 6 6 6
3 3 3 6 6 6 6 10 10 10 10 10 6 6 3 6 6 6 6 10 13 13 13 10 10 10 0 0 0 0 0 0 0 0 0 0 3 6 6 6 6 6 3
3 3 3 3 3 6 3 3 3 3 0 0 0 3 0 0 3 3 3 3 6 6 6 6 6 0 0 0 0 0 0 0 0 0 0 0 6 6 6 6 3 0 0
3 3 3 3 3 3 3 3 3 0 0 0 0 3 0 0 0 3 3 3 3 0 0 0 0 0 0 0 0 0 0 0 0 0 0 0 3 6 3 3 0 0 0
3 3 3 3 3 3 3 3 3 0 0 0 0 0 3 0 0 0 3 0 0 0 0 0 0 0 0 0 0 0 0 0 0 0 0 0 0 6 3 3 0 0 0
3 3 3 3 3 3 3 3 3 0 0 0 0 0 0 0 0 0 0 0 0 0 0 0 0 0 0 0 0 0 0 0 0 0 0 0 0 0 6 3 0 0 0
0 3 3 3 3 0 0 0 0 0 0 0 0 0 0 0 0 0 0 0 0 0 0 0 0 0 0 0 0 0 0 0 0 0 0 0 0 0 3 3 0 0 0
0 0 3 3 3 0 0 0 0 0 0 0 0 0 0 0 0 0 0 0 0 0 0 0 0 0 0 0 0 0 0 0 0 0 0 0 0 0 0 3 0 0 0
0 0 0 0 3 0 0 0 0 0 0 0 0 0 0 0 0 0 0 0 0 0 0 0 0 0 0 0 0 0 0 0 0 0 0 0 0 0 0 0 0 0 0
0 0 0 0 0 0 0 0 0 0 0 0 0 0 0 0 0 0 0 0 0 0 0 0 0 0 0 0 0 0 0 0 0 0 0 0 0 0 0 0 0 0 0
0 0 0 0 0 0 0 0 0 0 0 0 0 0 0 0 0 0 0 0 0 0 0 0 0 0 0 0 0 0 0 0 0 0 0 0 0 0 0 0 0 0 0
0 0 0 0 0 0 0 0 0 0 0 0 0 0 0 0 0 0 0 0 0 0 0 0 0 0 0 0 0 0 0 0 0 0 0 0 0 0 0 0 0 0 0
0 0 0 0 0 0 0 0 0 0 0 0 0 0 0 0 0 0 0 0 0 0 0 0 0 0 0 0 0 0 0 0 0 0 0 0 0 0 0 0 0 0 0
0 0 0 0 0 0 0 0 0 0 0 0 0 0 0 0 0 0 0 0 0 0 0 0 0 0 0 0 0 0 0 0 0 0 0 0 0 0 0 0 0 0 0
0 0 0 0 0 0 0 0 0 0 0 0 0 0 0 0 0 0 0 0 0 0 0 0 0 0 0 0 0 0 0 0 0 0 0 0 0 0 0 0 0 0 0
0 0 0 0 0 0 0 0 0 0 0 0 0 0 0 0 0 0 0 0 0 0 0 0 0 0 0 0 0 0 0 0 0 0 0 0 0 0 0 0 0 0 0
0 0 0 0 0 0 0 0 0 0 0 0 0 0 0 0 0 0 0 0 0 0 0 0 0 0 0 0 0 0 0 0 0 0 0 0 0 0 0 0 0 0 0
Height
5831 5832 5833 5834 5836 5836 5837 5839 5840 5841 5841 5842 5843 5844 5845 5845 5846 5847 5848 5849 5850 5851 5851 5852 5853 5854 5855 5855 5856 5857 5857 5858 5858 5859 5859 5859 5859 5859 5859 5859 5859 5859 5859
5828 5829 5830 5831 5833 5834 5834 5836 5837 5838 5839 5840 5841 5842 5843 5844 5845 5845 5846 5847 5848 5849 5850 5851 5852 5852 5853 5854 5855 5856 5856 5857 5858 5858 5858 5859 5859 5859 5859 5859 5859 5859 5859
5824 5826 5827 5828 5829 5831 5832 5833 5834 5835 5837 5838 5839 5839 5840 5842 5842 5843 5844 5845 5846 5847 5848 5849 5850 5851 5852 5853 5853 5854 5855 5856 5856 5857 5858 5858 5858 5858 5858 5858 5858 5858 5858
5820 5822 5823 5824 5825 5827 5828 5829 5830 5832 5833 5835 5836 5837 5838 5839 5840 5841 5842 5843 5844 5845 5846 5847 5848 5849 5850 5851 5852 5853 5854 5855 5855 5856 5856 5857 5857 5857 5857 5857 5857 5857 5857
5816 5817 5819 5820 5821 5822 5824 5826 5827 5828 5829 5831 5832 5833 5835 5836 5837 5838 5839 5840 5841 5842 5843 5844 5845 5847 5848 5849 5850 5851 5852 5853 5853 5854 5855 5855 5856 5856 5856 5856 5856 5856 5856
5810 5812 5814 5815 5816 5818 5819 5821 5823 5824 5825 5827 5828 5830 5831 5832 5834 5835 5836 5837 5838 5839 5840 5842 5843 5844 5845 5846 5847 5849 5850 5851 5851 5852 5853 5853 5854 5854 5854 5855 5855 5855 5855
5805 5806 5808 5810 5811 5813 5814 5816 5818 5819 5821 5822 5824 5825 5827 5828 5830 5831 5832 5834 5835 5836 5837 5839 5840 5841 5842 5844 5845 5846 5847 5848 5849 5850 5851 5851 5852 5852 5853 5853 5853 5853 5854
5799 5800 5802 5804 5806 5807 5809 5811 5812 5814 5816 5818 5819 5821 5822 5824 5825 5827 5828 5830 5831 5833 5834 5835 5837 5838 5839 5841 5842 5843 5844 5846 5847 5847 5848 5849 5849 5850 5850 5851 5851 5851 5852
5791 5793 5795 5797 5799 5801 5803 5805 5807 5808 5810 5812 5814 5816 5817 5819 5820 5822 5824 5825 5827 5828 5830 5832 5833 5834 5836 5837 5839 5840 5841 5842 5843 5844 5845 5846 5847 5847 5848 5849 5849 5849 5850
5784 5786 5788 5790 5792 5794 5796 5798 5800 5802 5804 5806 5808 5810 5812 5814 5815 5817 5819 5820 5822 5824 5826 5827 5829 5830 5832 5833 5835 5836 5838 5839 5840 5841 5842 5843 5844 5845 5845 5846 5847 5847 5847
5775 5778 5780 5782 5785 5787 5789 5791 5793 5796 5798 5800 5802 5804 5806 5808 5810 5812 5814 5815 5817 5819 5821 5823 5824 5826 5828 5829 5831 5832 5834 5835 5836 5838 5839 5840 5841 5842 5842 5843 5844 5845 5845
5766 5769 5771 5774 5776 5779 5781 5784 5786 5788 5791 5793 5795 5798 5800 5802 5804 5806 5808 5810 5812 5814 5815 5817 5819 5821 5823 5824 5826 5828 5829 5831 5832 5834 5835 5836 5837 5838 5839 5840 5841 5841 5842
5757 5760 5762 5765 5767 5770 5773 5776 5778 5781 5783 5786 5788 5791 5793 5795 5797 5800 5802 5804 5806 5808 5810 5812 5814 5815 5817 5819 5821 5823 5825 5826 5828 5830 5831 5832 5833 5834 5835 5836 5837 5838 5839
5747 5750 5753 5756 5759 5761 5764 5767 5770 5772 5775 5778 5780 5783 5785 5788 5790 5792 5795 5797 5799 5801 5803 5806 5808 5810 5812 5814 5816 5818 5820 5821 5823 5825 5826 5828 5829 5830 5831 5832 5833 5834 5835
5737 5740 5743 5746 5749 5752 5755 5758 5761 5764 5767 5769 5772 5775 5777 5780 5782 5784 5787 5790 5792 5794 5797 5799 5802 5804 5806 5808 5810 5812 5815 5816 5818 5820 5821 5823 5824 5825 5827 5828 5829 5830 5831
5727 5730 5733 5736 5740 5743 5746 5749 5752 5755 5757 5760 5763 5766 5768 5771 5774 5776 5779 5781 5784 5787 5789 5792 5794 5797 5799 5801 5804 5806 5808 5810 5812 5814 5816 5817 5819 5820 5822 5823 5824 5825 5826
5717 5720 5723 5726 5729 5733 5736 5739 5743 5745 5748 5751 5754 5756 5759 5762 5764 5767 5770 5773 5776 5778 5781 5784 5786 5789 5792 5794 5797 5799 5802 5804 5806 5808 5810 5811 5813 5815 5816 5817 5819 5820 5821
5706 5709 5712 5716 5719 5722 5726 5729 5733 5735 5738 5741 5744 5746 5749 5752 5755 5758 5761 5764 5767 5769 5772 5775 5778 5781 5784 5787 5789 5792 5794 5797 5799 5801 5803 5805 5807 5808 5810 5812 5813 5814 5815
5695 5699 5702 5705 5709 5712 5715 5719 5723 5725 5728 5731 5734 5737 5740 5743 5746 5749 5752 5755 5758 5760 5763 5766 5769 5772 5776 5778 5781 5784 5786 5789 5791 5793 5796 5798 5800 5801 5803 5805 5806 5808 5809
5684 5688 5691 5695 5698 5701 5705 5708 5712 5715 5718 5721 5724 5727 5730 5733 5736 5739 5742 5745 5748 5751 5753 5757 5760 5763 5767 5770 5772 5775 5778 5781 5783 5785 5788 5790 5792 5794 5796 5798 5799 5801 5802
5674 5677 5680 5684 5687 5690 5694 5697 5701 5704 5707 5711 5714 5717 5720 5723 5726 5729 5732 5735 5738 5741 5744 5747 5750 5753 5757 5760 5763 5766 5769 5772 5775 5777 5779 5782 5784 5786 5788 5790 5791 5793 5794
5663 5666 5669 5672 5676 5679 5682 5686 5689 5693 5696 5699 5703 5706 5709 5712 5715 5718 5722 5724 5727 5730 5733 5737 5740 5743 5747 5750 5754 5756 5759 5763 5765 5768 5770 5773 5775 5777 5779 5781 5783 5784 5786
5651 5654 5657 5660 5664 5667 5670 5673 5677 5681 5685 5688 5691 5695 5698 5701 5703 5707 5710 5713 5716 5719 5722 5725 5729 5733 5736 5740 5743 5747 5750 5753 5756 5758 5760 5763 5765 5768 5770 5772 5774 5776 5777
5639 5642 5645 5648 5651 5654 5657 5661 5665 5669 5673 5677 5680 5682 5685 5688 5691 5694 5698 5701 5704 5707 5710 5714 5717 5721 5725 5728 5732 5735 5739 5742 5745 5748 5750 5753 5755 5757 5760 5762 5764 5766 5768
5627 5630 5633 5636 5639 5642 5645 5649 5653 5656 5660 5664 5667 5669 5672 5675 5678 5682 5685 5688 5691 5695 5698 5701 5705 5709 5713 5717 5720 5723 5727 5730 5733 5737 5740 5742 5744 5747 5749 5752 5754 5756 5758
5615 5617 5620 5623 5626 5629 5633 5636 5639 5643 5647 5650 5653 5656 5659 5662 5665 5668 5671 5675 5678 5681 5685 5689 5692 5696 5700 5705 5708 5712 5715 5718 5722 5725 5728 5731 5733 5736 5738 5740 5743 5745 5747
Wind_Speed
17 16 16 15 15 15 14 13 13 13 12 11 10 9 9 9 9 9 8 8 8 8 8 7 7 7 7 6 5 5 4 4 3 3 3 2 2 2 2 3 3 3 3
18 18 18 18 17 16 16 15 15 14 14 13 12 11 11 11 11 10 10 10 10 10 9 9 9 8 8 8 7 6 6 5 4 4 4 3 3 3 3 3 3 3 3
21 20 20 20 19 19 18 17 17 16 16 15 15 14 13 13 12 12 11 11 11 11 11 10 10 10 9 9 8 8 7 7 6 6 5 5 4 4 4 4 3 4 4
23 22 22 22 21 21 20 19 18 18 18 17 17 16 15 15 15 14 13 13 13 13 12 12 11 11 10 10 10 9 8 8 8 7 6 6 6 6 5 5 4 5 5
25 25 25 24 23 23 23 22 20 20 20 19 19 19 18 17 16 16 16 15 15 14 13 13 13 12 12 11 11 11 11 10 9 9 8 8 8 8 7 6 6 6 6
27 27 27 26 25 25 25 24 23 22 21 21 21 20 20 19 18 18 18 17 17 16 16 15 14 14 14 13 13 13 12 12 11 11 10 9 9 9 8 8 8 8 7
29 28 29 28 28 27 27 26 25 25 24 23 22 22 21 21 21 20 20 19 19 18 18 17 16 15 15 15 14 14 13 13 13 13 12 11 10 10 9 9 9 8 8
31 30 30 30 29 29 29 28 28 27 26 26 25 24 23 23 22 22 21 21 20 20 20 19 18 17 17 17 16 16 15 14 14 14 13 12 12 11 10 10 10 9 9
33 33 32 32 31 31 31 30 30 30 29 28 27 26 25 25 24 23 23 23 22 22 22 21 21 20 19 18 18 18 17 16 15 15 14 14 13 12 12 11 10 10 10
35 35 35 34 33 33 33 32 32 31 31 30 29 29 28 27 26 25 25 24 24 24 24 23 23 22 22 21 20 19 19 18 17 16 16 15 15 14 13 13 12 11 11
38 37 36 36 35 35 35 35 34 33 32 32 31 30 30 29 28 27 26 26 26 26 25 25 25 24 23 22 22 21 21 20 18 17 17 16 16 15 15 14 14 13 13
39 39 38 37 37 37 37 37 37 36 35 34 33 32 32 31 30 29 28 28 28 28 27 26 26 26 25 24 23 23 22 21 20 19 18 18 17 17 17 16 16 15 15
40 39 39 38 38 38 38 38 38 38 37 36 36 35 34 33 32 31 30 30 30 29 29 28 28 27 27 26 25 24 23 23 22 21 20 19 19 19 18 18 17 17 17
41 40 40 39 39 39 38 39 39 39 39 39 38 37 36 36 35 33 32 32 31 31 30 30 29 28 28 27 26 26 24 24 24 23 22 21 20 20 20 20 19 19 18
42 42 42 41 40 40 40 39 39 39 39 40 40 39 39 38 37 35 34 34 33 33 32 32 31 30 29 29 29 28 27 25 26 25 24 23 22 22 22 22 21 21 20
42 42 42 42 42 42 41 41 40 40 40 41 41 41 41 40 39 37 37 36 35 34 34 34 33 33 32 31 30 29 29 29 28 27 26 25 25 24 23 23 23 22 22
43 43 42 42 42 42 42 42 41 40 40 40 41 42 41 41 40 39 39 38 38 37 36 35 35 35 34 33 32 32 31 31 31 30 29 28 27 26 25 25 25 24 24
45 44 44 43 43 43 44 43 43 42 42 41 41 41 41 41 40 40 39 39 39 38 37 37 37 36 35 35 34 34 34 34 33 32 32 31 30 29 28 27 27 27 26
45 45 44 44 43 44 44 44 44 44 44 43 42 42 42 41 41 40 40 40 40 39 38 38 37 37 37 36 36 36 35 35 35 34 34 33 33 32 31 30 29 29 28
45 46 45 45 45 45 46 45 45 46 46 45 43 43 44 43 42 42 42 41 41 41 40 39 38 38 38 38 38 38 38 37 36 35 36 35 35 34 34 33 32 32 31
44 46 46 47 46 47 47 47 46 47 47 46 47 46 45 45 45 44 44 44 43 42 42 41 41 40 39 39 39 39 39 39 38 38 37 36 37 36 35 35 34 34 33
45 46 46 47 47 48 48 48 49 48 48 47 47 47 47 47 46 45 45 46 45 44 44 43 43 42 42 41 41 40 40 40 40 40 39 39 38 38 38 37 37 36 35
44 46 47 48 48 49 50 51 50 50 49 48 49 49 49 49 48 48 45 46 47 47 47 46 45 45 44 43 43 42 42 42 43 42 42 41 41 40 40 39 38 37 37
46 46 47 48 49 49 50 52 52 51 51 50 50 51 51 51 51 50 49 48 48 49 49 48 48 48 47 46 45 44 44 44 44 44 43 43 43 42 42 41 40 40 39
46 47 48 49 49 50 51 51 52 52 53 52 52 52 53 53 53 53 52 52 51 51 50 49 50 49 49 48 47 47 47 46 46 45 45 44 44 44 44 44 43 42 41
46 47 48 49 50 50 51 52 52 53 53 54 54 54 54 54 54 54 54 54 53 52 51 51 51 50 50 49 49 49 49 48 47 47 46 46 45 45 45 44 45 44 43
Wind_Direction
245 246 246 247 247 244 243 247 247 247 248 248 246 247 250 252 254 254 253 254 256 258 259 258 256 257 257 255 253 252 255 258 262 274 284 294 306 324 332 336 354 353 353
246 246 246 246 246 246 246 246 247 247 247 247 248 248 250 251 252 251 250 251 255 257 259 258 256 256 256 254 252 250 251 255 259 267 275 281 291 298 308 312 323 331 330
246 245 246 246 246 245 246 247 248 249 249 249 250 250 249 250 252 251 251 252 254 256 257 257 255 255 255 253 250 250 254 255 257 264 267 272 281 288 295 300 311 313 310
248 247 247 246 246 245 245 246 246 249 251 250 251 252 250 250 251 251 251 253 254 255 254 254 254 254 253 253 252 251 254 256 259 263 264 269 274 277 281 288 293 301 307
249 249 248 247 246 245 245 246 248 249 250 249 250 251 252 251 251 251 251 253 254 254 252 252 253 253 253 252 252 252 253 257 259 260 262 266 270 273 275 279 281 287 291
250 249 248 248 247 246 246 247 249 249 250 250 251 251 252 252 251 251 250 251 253 253 252 252 253 253 253 253 253 252 254 255 256 259 261 263 267 271 273 275 276 279 282
250 249 247 247 248 248 248 248 249 249 249 250 251 251 251 252 252 252 251 250 251 252 252 250 251 251 252 252 252 252 253 254 255 257 260 262 265 267 270 271 271 272 276
250 249 248 246 246 247 247 248 248 249 249 250 251 252 253 253 252 252 252 251 251 251 251 250 249 249 251 251 250 250 251 252 254 254 257 259 261 262 264 266 268 268 271
250 248 248 246 245 245 246 246 247 247 248 249 250 251 252 253 252 251 252 252 252 251 250 249 248 248 249 249 248 248 249 251 253 253 254 256 257 258 260 261 264 266 270
251 250 249 247 245 245 245 246 247 247 248 248 249 249 249 251 251 251 252 253 252 251 250 250 250 250 249 249 249 247 247 249 252 252 253 254 255 256 256 257 260 263 267
251 250 249 248 247 246 245 246 247 248 248 248 248 248 249 250 250 251 251 252 252 252 251 250 250 251 250 249 249 248 247 248 249 250 252 253 254 256 254 255 257 260 263
251 250 249 248 247 247 246 246 246 247 247 247 248 248 249 249 249 250 251 251 252 252 252 252 251 250 250 250 248 248 247 247 247 248 250 252 254 254 255 255 256 258 261
251 250 249 248 247 246 246 246 246 246 247 247 247 248 249 248 249 249 250 251 252 252 252 251 251 250 250 249 248 247 248 247 248 249 250 252 254 255 256 255 256 258 260
250 249 249 248 247 246 246 247 246 246 246 246 247 248 248 248 249 248 248 250 250 250 251 250 249 250 250 249 249 249 248 248 248 249 251 253 255 256 256 256 257 258 259
249 248 248 247 247 246 245 246 247 246 246 247 247 247 247 248 248 248 248 248 248 249 249 248 248 249 249 248 249 248 247 248 249 250 251 253 254 256 256 256 258 259 259
249 248 247 247 247 246 245 246 247 248 247 246 246 248 248 247 247 247 247 246 247 248 248 248 249 248 249 249 250 250 249 248 249 251 251 253 254 255 256 257 257 259 260
249 248 247 247 247 246 245 245 246 246 247 246 246 247 247 247 246 247 247 247 248 249 249 248 248 248 248 248 249 248 249 250 251 252 252 253 254 255 256 257 258 259 260
249 249 248 247 247 246 245 245 245 246 247 247 247 247 246 246 247 247 248 248 248 248 249 249 248 248 248 248 248 248 249 250 251 252 253 253 254 255 256 257 258 259 260
249 249 249 248 247 246 246 245 245 246 247 247 247 246 246 247 247 247 247 248 248 247 247 248 247 247 248 248 248 248 249 250 251 252 253 253 254 256 257 257 258 259 261
250 249 249 248 248 246 246 246 247 247 246 246 247 248 248 248 247 247 248 248 247 247 246 246 246 247 248 248 249 249 249 250 251 252 253 254 255 256 257 257 258 259 260
250 249 249 249 248 247 246 246 248 247 247 246 247 248 249 249 248 248 249 248 247 246 246 247 247 247 248 249 249 249 249 250 251 252 254 255 255 256 256 257 258 259 260
251 250 249 249 249 248 247 247 247 247 247 247 247 248 249 249 249 249 250 248 247 246 247 247 247 247 248 249 249 250 250 250 252 252 253 254 255 256 257 257 258 258 259
252 250 249 248 248 249 248 247 247 246 247 248 248 248 249 249 249 248 248 249 248 248 248 248 248 248 249 250 250 250 251 252 252 252 254 255 256 257 256 257 257 258 259
253 252 251 249 248 249 248 247 247 247 248 248 249 250 250 250 249 249 250 250 250 250 249 248 249 249 249 250 250 251 252 253 253 253 253 255 257 257 256 256 257 257 258
253 252 251 251 249 248 248 248 249 248 248 248 249 249 249 249 249 249 250 251 249 249 249 249 249 249 248 250 252 253 253 253 254 255 255 256 257 257 257 257 256 257 258
254 253 252 251 250 249 248 248 249 249 249 249 249 249 249 249 249 249 249 250 250 250 249 249 248 248 248 249 251 252 254 254 254 254 255 257 257 257 257 256 257 257 257